VK3VJP-13 Weather Reports


time (UTC)temp
C
wind
direction
speed
KPH
gust
KPH
rain 1hr
cm
rain 24hr
cm
rain mn
cm
humidity
%
barometer
mb
20260510232250 12 5 1.6 8.0 0.00 0.00 0.00 75 1032.8
20260510231750 12 307 1.6 4.8 0.00 0.00 0.00 78 1032.7
20260510231250 11 332 1.6 4.8 0.00 0.00 0.00 82 1032.7
20260510230750 11 180 1.6 4.8 0.00 0.00 0.00 83 1032.8
20260510230250 10 331 1.6 6.4 0.00 0.00 0.00 85 1032.8
20260510224750 10 322 1.6 3.2 0.00 0.00 0.00 88 1032.9
20260510224250 9 313 0.0 3.2 0.00 0.00 0.00 89 1032.8
20260510223250 8 72 0.0 1.6 0.00 0.00 0.00 93 1032.9
20260510222750 8 72 0.0 3.2 0.00 0.00 0.00 94 1032.8
20260510222250 8 72 1.6 1.6 0.00 0.00 0.00 95 1032.7
20260510221750 7 72 1.6 4.8 0.00 0.00 0.00 95 1032.6
20260510221250 7 338 1.6 4.8 0.00 0.00 0.00 95 1032.6
20260510220750 6 59 0.0 4.8 0.00 0.00 0.00 95 1032.6
20260510220250 6 38 0.0 4.8 0.00 0.00 0.00 94 1032.6
20260510215750 6 98 0.0 0.0 0.00 0.00 0.00 94 1032.5
20260510215250 6 122 0.0 0.0 0.00 0.00 0.00 94 1032.4
20260510214750 6 122 1.6 3.2 0.00 0.00 0.00 94 1032.3
20260510214250 6 122 1.6 3.2 0.00 0.00 0.00 94 1032.1
20260510213750 6 122 0.0 3.2 0.00 0.00 0.00 93 1032.0
20260510213250 6 122 0.0 3.2 0.00 0.00 0.00 93 1032.0
20260510212750 6 122 1.6 3.2 0.00 0.00 0.00 93 1031.9
20260510212250 6 122 1.6 3.2 0.00 0.00 0.00 93 1031.9
20260510211750 6 122 1.6 3.2 0.00 0.00 0.00 93 1031.8
20260510211250 6 93 3.2 4.8 0.00 0.00 0.00 94 1031.9
20260510210750 6 111 3.2 4.8 0.00 0.00 0.00 93 1031.8
20260510210250 6 107 3.2 4.8 0.00 0.00 0.00 94 1031.8
20260510205750 6 103 3.2 9.7 0.00 0.00 0.00 94 1031.7
20260510205250 5 88 3.2 6.4 0.00 0.00 0.00 94 1031.7
20260510204750 5 138 3.2 6.4 0.00 0.00 0.00 94 1031.7
20260510204250 5 78 3.2 6.4 0.00 0.00 0.00 94 1031.7
20260510203750 5 111 3.2 6.4 0.00 0.00 0.00 94 1031.5
20260510203250 5 120 1.6 6.4 0.00 0.00 0.00 92 1031.5
20260510202750 5 115 0.0 0.0 0.00 0.00 0.00 91 1031.5
20260510202250 5 115 1.6 3.2 0.00 0.00 0.00 91 1031.4
20260510201750 5 53 1.6 4.8 0.00 0.00 0.00 91 1031.2
20260510201250 5 86 0.0 3.2 0.00 0.00 0.00 91 1031.2
20260510200750 5 71 0.0 3.2 0.00 0.00 0.00 91 1031.1
20260510200250 6 85 0.0 0.0 0.00 0.00 0.00 91 1031.1
20260510195750 6 85 0.0 1.6 0.00 0.00 0.00 90 1031.0
20260510195250 6 85 0.0 1.6 0.00 0.00 0.00 90 1030.9
20260510194750 6 85 0.0 1.6 0.00 0.00 0.00 90 1031.0
20260510194250 6 85 0.0 1.6 0.00 0.00 0.00 91 1030.8
20260510193750 6 85 0.0 1.6 0.00 0.00 0.00 91 1030.7
20260510193250 6 85 0.0 1.6 0.00 0.00 0.00 91 1030.8
20260510192750 7 85 0.0 4.8 0.00 0.00 0.00 90 1030.7
20260510192250 7 80 0.0 1.6 0.00 0.00 0.00 90 1030.7
20260510191750 7 80 0.0 3.2 0.00 0.00 0.00 90 1030.7
20260510191250 7 88 1.6 3.2 0.00 0.00 0.00 91 1030.5
20260510190750 7 88 3.2 8.0 0.00 0.00 0.00 91 1030.5
20260510190250 7 86 4.8 9.7 0.00 0.00 0.00 91 1030.5
20260510185750 7 92 4.8 11.3 0.00 0.00 0.00 91 1030.5
20260510185250 7 88 4.8 11.3 0.00 0.00 0.00 91 1030.5
20260510184750 7 128 6.4 11.3 0.00 0.00 0.00 91 1030.5
20260510184250 7 78 4.8 12.9 0.00 0.00 0.00 91 1030.5
20260510183750 7 105 4.8 11.3 0.00 0.00 0.00 91 1030.4
20260510183250 7 137 4.8 12.9 0.00 0.00 0.00 90 1030.4
20260510182750 7 71 4.8 12.9 0.00 0.00 0.00 90 1030.5
20260510182250 7 94 4.8 9.7 0.00 0.00 0.00 91 1030.4
20260510181750 7 91 4.8 11.3 0.00 0.00 0.00 91 1030.4
20260510181250 7 93 4.8 12.9 0.00 0.00 0.00 91 1030.3
20260510180750 7 94 3.2 11.3 0.00 0.00 0.00 91 1030.2
20260510180250 7 122 4.8 11.3 0.00 0.00 0.00 90 1030.3
20260510175750 7 121 6.4 12.9 0.00 0.00 0.00 90 1030.3
20260510175250 7 68 4.8 14.5 0.00 0.00 0.00 91 1030.2
20260510174750 7 78 4.8 9.7 0.00 0.00 0.00 90 1030.2
20260510174250 7 109 4.8 12.9 0.00 0.00 0.00 90 1030.2
20260510173750 7 88 4.8 11.3 0.00 0.00 0.00 91 1030.1
20260510173250 7 94 4.8 11.3 0.00 0.00 0.00 91 1030.1
20260510172750 7 118 4.8 12.9 0.00 0.00 0.00 91 1030.2
20260510172250 7 84 4.8 11.3 0.00 0.00 0.00 90 1030.1
20260510171750 7 99 4.8 8.0 0.00 0.00 0.00 90 1030.1
20260510171250 7 50 3.2 11.3 0.00 0.00 0.00 91 1030.2
20260510170750 7 83 3.2 11.3 0.00 0.00 0.00 90 1030.1
20260510170250 7 112 4.8 11.3 0.00 0.00 0.00 90 1030.1
20260510165750 7 110 4.8 12.9 0.00 0.00 0.00 90 1030.1
20260510165250 7 112 4.8 11.3 0.00 0.00 0.00 90 1030.1
20260510164750 7 105 4.8 12.9 0.00 0.00 0.00 90 1030.1
20260510164250 7 94 4.8 11.3 0.00 0.00 0.00 90 1030.1
20260510163750 7 119 4.8 11.3 0.00 0.00 0.00 90 1030.1
20260510163250 7 129 4.8 12.9 0.00 0.00 0.00 90 1030.1
20260510162750 7 87 4.8 12.9 0.00 0.00 0.00 90 1030.1
20260510162250 7 101 3.2 9.7 0.00 0.00 0.00 90 1030.2
20260510161750 7 125 3.2 11.3 0.00 0.00 0.00 90 1030.2
20260510161250 7 158 3.2 11.3 0.00 0.00 0.00 90 1030.3
20260510160750 7 101 3.2 8.0 0.00 0.00 0.00 90 1030.2
20260510160250 7 92 3.2 6.4 0.00 0.00 0.00 91 1030.3
20260510155750 7 68 3.2 14.5 0.00 0.00 0.00 91 1030.3
20260510155250 7 107 3.2 4.8 0.00 0.00 0.00 91 1030.3
20260510154750 7 70 1.6 6.4 0.00 0.00 0.00 91 1030.3
20260510154250 7 85 1.6 4.8 0.00 0.00 0.00 91 1030.3
20260510153750 7 94 1.6 8.0 0.00 0.00 0.00 91 1030.4
20260510153250 7 0 1.6 4.8 0.00 0.00 0.00 90 1030.4
20260510152750 7 84 1.6 4.8 0.00 0.00 0.00 90 1030.5
20260510152250 7 77 1.6 4.8 0.00 0.00 0.00 90 1030.4
20260510151750 7 187 3.2 6.4 0.00 0.00 0.00 90 1030.3
20260510151250 7 126 3.2 6.4 0.00 0.00 0.00 90 1030.4
20260510150751 7 74 1.6 6.4 0.00 0.00 0.00 90 1030.4
20260510150250 7 171 1.6 6.4 0.00 0.00 0.00 90 1030.5
20260510145750 7 30 1.6 12.9 0.00 0.00 0.00 90 1030.5
20260510145250 7 67 1.6 8.0 0.00 0.00 0.00 90 1030.4
20260510144750 7 209 1.6 3.2 0.00 0.00 0.00 90 1030.5
20260510144250 7 155 1.6 6.4 0.00 0.00 0.00 90 1030.5
20260510143750 7 118 1.6 4.8 0.00 0.00 0.00 90 1030.6
20260510143250 7 86 3.2 4.8 0.00 0.00 0.00 90 1030.6
20260510142750 7 111 3.2 11.3 0.00 0.00 0.00 90 1030.5
20260510142251 7 144 1.6 6.4 0.00 0.00 0.00 90 1030.5
20260510141751 7 174 3.2 3.2 0.00 0.00 0.00 90 1030.5
20260510141251 7 134 4.8 11.3 0.00 0.00 0.00 90 1030.5
20260510140751 7 184 3.2 17.7 0.00 0.00 0.00 90 1030.6
20260510140250 7 181 3.2 4.8 0.00 0.00 0.00 90 1030.6
20260510135751 7 120 3.2 8.0 0.00 0.00 0.00 90 1030.6
20260510135251 7 123 1.6 6.4 0.00 0.00 0.00 90 1030.6
20260510134751 7 126 1.6 9.7 0.00 0.00 0.00 90 1030.6
20260510134251 7 213 3.2 8.0 0.00 0.00 0.00 90 1030.6
20260510133751 7 86 3.2 9.7 0.00 0.00 0.00 90 1030.6
20260510133251 7 97 3.2 11.3 0.00 0.00 0.00 90 1030.7
20260510132751 7 229 1.6 4.8 0.00 0.00 0.00 90 1030.7
20260510132251 7 202 1.6 8.0 0.00 0.00 0.00 90 1030.7
20260510131751 7 205 1.6 3.2 0.00 0.00 0.00 90 1030.7
20260510131251 7 217 1.6 4.8 0.00 0.00 0.00 89 1030.7
20260510130751 8 243 3.2 6.4 0.00 0.00 0.00 89 1030.8
20260510130251 8 46 1.6 9.7 0.00 0.00 0.00 90 1030.8
20260510125751 8 116 1.6 11.3 0.00 0.00 0.00 89 1030.8
20260510125251 8 213 1.6 6.4 0.00 0.00 0.00 89 1030.8
20260510124751 8 198 1.6 6.4 0.00 0.00 0.00 89 1030.7
20260510124251 8 70 1.6 11.3 0.00 0.00 0.00 89 1030.8
20260510123751 8 55 1.6 4.8 0.00 0.00 0.00 89 1030.8
20260510123251 8 59 1.6 8.0 0.00 0.00 0.00 89 1030.8
20260510122751 8 80 1.6 9.7 0.00 0.00 0.00 88 1030.9
20260510122251 8 169 1.6 8.0 0.00 0.00 0.00 88 1030.8
20260510121751 8 150 1.6 6.4 0.00 0.00 0.00 88 1030.8
20260510121251 8 47 1.6 6.4 0.00 0.00 0.00 88 1030.8
20260510120751 8 113 3.2 14.5 0.00 0.00 0.00 88 1030.8
20260510120251 8 94 1.6 8.0 0.00 0.00 0.00 88 1030.9
20260510115751 8 105 1.6 6.4 0.00 0.00 0.00 88 1030.8
20260510115251 8 109 3.2 4.8 0.00 0.00 0.00 88 1030.9
20260510114751 8 71 3.2 8.0 0.00 0.00 0.00 88 1030.8
20260510114251 8 126 1.6 4.8 0.00 0.00 0.00 88 1030.9
20260510113751 8 134 3.2 9.7 0.00 0.00 0.00 88 1030.8
20260510113251 8 74 3.2 9.7 0.00 0.00 0.00 88 1030.9
20260510112751 8 164 3.2 6.4 0.00 0.00 0.00 87 1030.8
20260510112251 8 60 3.2 9.7 0.00 0.00 0.00 87 1030.8
20260510111751 8 166 3.2 8.0 0.00 0.00 0.00 87 1030.8
20260510111251 8 244 1.6 8.0 0.00 0.00 0.00 87 1030.7
20260510110751 8 105 1.6 9.7 0.00 0.00 0.00 87 1030.7
20260510110251 8 126 3.2 4.8 0.00 0.00 0.00 87 1030.8
20260510105751 8 202 3.2 14.5 0.00 0.00 0.00 87 1030.7
20260510105251 8 127 0.0 4.8 0.00 0.00 0.00 87 1030.7
20260510104751 8 128 1.6 3.2 0.00 0.00 0.00 86 1030.6
20260510104251 8 300 3.2 6.4 0.00 0.00 0.00 86 1030.5
20260510103751 8 90 3.2 9.7 0.00 0.00 0.00 86 1030.6
20260510103251 8 69 3.2 12.9 0.00 0.00 0.00 86 1030.6
20260510102751 8 84 3.2 12.9 0.00 0.00 0.00 86 1030.6
20260510102251 8 111 3.2 4.8 0.00 0.00 0.00 86 1030.6
20260510101751 8 138 3.2 12.9 0.00 0.00 0.00 86 1030.6
20260510101251 8 300 1.6 4.8 0.00 0.00 0.00 86 1030.5
20260510100751 8 263 3.2 12.9 0.00 0.00 0.00 86 1030.5
20260510100251 8 113 3.2 9.7 0.00 0.00 0.00 86 1030.6
20260510095751 8 34 1.6 4.8 0.00 0.00 0.00 86 1030.6
20260510095251 8 169 3.2 9.7 0.00 0.00 0.00 86 1030.5
20260510094751 8 230 3.2 9.7 0.00 0.00 0.00 86 1030.5
20260510094251 8 116 3.2 11.3 0.00 0.00 0.00 86 1030.4
20260510093751 8 153 1.6 6.4 0.00 0.00 0.00 85 1030.4
20260510093251 8 220 1.6 6.4 0.00 0.00 0.00 85 1030.3
20260510092751 9 109 3.2 8.0 0.00 0.00 0.00 85 1030.3
20260510092251 9 106 3.2 8.0 0.00 0.00 0.00 85 1030.1
20260510091751 9 259 3.2 9.7 0.00 0.00 0.00 85 1030.2
20260510091251 9 142 1.6 6.4 0.00 0.00 0.00 85 1030.1
20260510090751 9 90 1.6 6.4 0.00 0.00 0.00 85 1030.0
20260510090251 9 205 1.6 9.7 0.00 0.00 0.00 85 1029.9
20260510085751 9 99 3.2 8.0 0.00 0.00 0.00 85 1029.9
20260510085251 9 303 3.2 6.4 0.00 0.00 0.00 85 1029.8
20260510084751 9 238 3.2 6.4 0.00 0.00 0.00 85 1029.9
20260510084251 9 149 1.6 6.4 0.00 0.00 0.00 84 1029.9
20260510083751 10 327 1.6 8.0 0.00 0.00 0.00 84 1029.8
20260510083251 10 179 1.6 8.0 0.00 0.00 0.00 84 1029.7
20260510082751 10 85 1.6 6.4 0.00 0.00 0.00 84 1029.7
20260510082251 10 140 1.6 8.0 0.00 0.00 0.00 83 1029.6
20260510081751 10 147 1.6 8.0 0.00 0.00 0.00 83 1029.6
20260510081251 10 194 1.6 4.8 0.00 0.00 0.00 83 1029.6
20260510080751 10 223 1.6 3.2 0.00 0.00 0.00 82 1029.6
20260510080251 10 221 1.6 6.4 0.00 0.00 0.00 82 1029.4
20260510075751 10 103 1.6 3.2 0.00 0.00 0.00 81 1029.4
20260510075251 10 206 1.6 6.4 0.00 0.00 0.00 81 1029.5
20260510074751 11 157 1.6 3.2 0.00 0.00 0.00 80 1029.4
20260510074251 11 234 1.6 3.2 0.00 0.00 0.00 79 1029.4
20260510073751 11 107 1.6 4.8 0.00 0.00 0.00 79 1029.3
20260510073251 11 183 1.6 4.8 0.00 0.00 0.00 78 1029.3
20260510072751 11 143 1.6 6.4 0.00 0.00 0.00 77 1029.3
20260510072251 12 172 1.6 4.8 0.00 0.00 0.00 77 1029.3
20260510071751 12 126 0.0 3.2 0.00 0.00 0.00 76 1029.3
20260510071251 12 104 1.6 3.2 0.00 0.00 0.00 75 1029.3
20260510070751 12 178 1.6 6.4 0.00 0.00 0.00 75 1029.3
20260510070251 12 92 1.6 6.4 0.00 0.00 0.00 75 1029.3
20260510065751 12 150 1.6 6.4 0.00 0.00 0.00 75 1029.2
20260510065251 13 190 1.6 8.0 0.00 0.00 0.00 74 1029.1
20260510064751 13 265 1.6 4.8 0.00 0.00 0.00 73 1029.2
20260510064251 13 148 1.6 8.0 0.00 0.00 0.00 73 1029.1
20260510063751 13 146 1.6 8.0 0.00 0.00 0.00 74 1029.1
20260510063251 13 232 3.2 8.0 0.00 0.00 0.00 73 1029.0
20260510062751 13 207 3.2 9.7 0.00 0.00 0.00 73 1029.0
20260510062251 13 205 3.2 11.3 0.00 0.00 0.00 73 1029.0
20260510061751 13 229 1.6 3.2 0.00 0.00 0.00 73 1028.9
20260510061251 13 117 1.6 6.4 0.00 0.00 0.00 73 1028.9
20260510060751 13 206 3.2 6.4 0.00 0.00 0.00 73 1028.9
20260510060251 13 183 3.2 9.7 0.00 0.00 0.00 72 1028.8
20260510055751 13 238 1.6 11.3 0.00 0.00 0.00 72 1028.8
20260510055251 13 254 3.2 6.4 0.00 0.00 0.00 72 1028.8
20260510054751 13 66 4.8 6.4 0.00 0.00 0.00 71 1028.8
20260510054251 14 74 4.8 14.5 0.00 0.00 0.00 70 1028.7
20260510053751 14 40 3.2 9.7 0.00 0.00 0.00 70 1028.8
20260510053251 14 198 3.2 11.3 0.00 0.00 0.00 72 1028.8
20260510052751 13 117 3.2 12.9 0.00 0.00 0.00 71 1028.7
20260510052251 13 86 3.2 9.7 0.00 0.00 0.00 72 1028.7
20260510051751 13 182 4.8 12.9 0.00 0.00 0.00 73 1028.7
20260510051251 13 69 4.8 12.9 0.00 0.00 0.00 72 1028.6
20260510050751 13 128 3.2 8.0 0.00 0.00 0.00 72 1028.7
20260510050251 13 251 4.8 11.3 0.00 0.00 0.00 70 1028.6
20260510045751 13 61 4.8 14.5 0.00 0.00 0.00 70 1028.7
20260510045251 13 197 4.8 11.3 0.00 0.00 0.00 71 1028.7
20260510044751 13 257 3.2 11.3 0.00 0.00 0.00 72 1028.6
20260510044251 13 225 3.2 11.3 0.00 0.00 0.00 71 1028.7
20260510043751 14 212 4.8 16.1 0.00 0.00 0.00 70 1028.6
20260510043251 14 0 3.2 11.3 0.00 0.00 0.00 70 1028.6
20260510042752 14 134 3.2 16.1 0.00 0.00 0.00 69 1028.6
20260510042251 14 197 4.8 14.5 0.00 0.00 0.00 70 1028.5
20260510041752 15 19 4.8 8.0 0.00 0.00 0.00 69 1028.5
20260510041252 15 155 4.8 11.3 0.00 0.00 0.00 71 1028.5
20260510040752 15 115 4.8 12.9 0.00 0.00 0.00 70 1028.6
20260510040252 15 230 4.8 11.3 0.00 0.00 0.00 70 1028.6
20260510035752 15 132 3.2 16.1 0.00 0.00 0.00 70 1028.6
20260510035252 15 57 3.2 14.5 0.00 0.00 0.00 70 1028.7
20260510034752 15 219 3.2 11.3 0.00 0.00 0.00 72 1028.6
20260510034252 15 261 4.8 14.5 0.00 0.00 0.00 71 1028.6
20260510033752 15 192 4.8 14.5 0.00 0.00 0.00 71 1028.6
20260510033252 15 9 3.2 11.3 0.00 0.00 0.00 70 1028.6
20260510032752 15 94 3.2 8.0 0.00 0.00 0.00 71 1028.7
20260510032252 15 105 4.8 16.1 0.00 0.00 0.00 71 1028.7
20260510031752 15 149 3.2 9.7 0.00 0.00 0.00 72 1028.7
20260510031252 15 69 3.2 8.0 0.00 0.00 0.00 71 1028.6
20260510030752 15 98 4.8 6.4 0.00 0.00 0.00 72 1028.8
20260510030252 15 171 4.8 12.9 0.00 0.00 0.00 73 1028.8
20260510025752 14 192 3.2 9.7 0.00 0.00 0.00 73 1028.8
20260510025252 14 242 4.8 9.7 0.00 0.00 0.00 73 1028.9
20260510024752 14 321 4.8 12.9 0.00 0.00 0.00 73 1029.0
20260510023752 14 28 4.8 20.9 0.00 0.00 0.00 73 1029.1
20260510023252 14 182 4.8 14.5 0.00 0.00 0.00 72 1029.2
20260510022752 14 217 3.2 14.5 0.00 0.00 0.00 75 1029.2
20260510022252 14 103 4.8 14.5 0.00 0.00 0.00 73 1029.3
20260510021752 14 263 4.8 8.0 0.00 0.00 0.00 73 1029.4
20260510021252 14 184 3.2 8.0 0.00 0.00 0.00 74 1029.5
20260510020752 13 115 3.2 6.4 0.00 0.00 0.00 75 1029.6
20260510020252 13 355 3.2 11.3 0.00 0.00 0.00 75 1029.6
20260510015752 13 76 4.8 11.3 0.00 0.00 0.00 76 1029.5
20260510015252 13 56 6.4 12.9 0.00 0.00 0.00 77 1029.7
20260510014752 13 144 6.4 12.9 0.00 0.00 0.00 77 1029.6
20260510014252 13 5 6.4 14.5 0.00 0.00 0.00 77 1029.6
20260510013752 13 234 6.4 17.7 0.00 0.00 0.00 77 1029.8
20260510013252 13 159 6.4 14.5 0.00 0.00 0.00 78 1029.8
20260510012752 12 157 6.4 17.7 0.00 0.00 0.00 78 1029.9
20260510012252 12 215 6.4 17.7 0.00 0.00 0.00 78 1030.0
20260510011252 12 54 4.8 12.9 0.00 0.00 0.00 78 1030.0
20260510010752 12 128 4.8 11.3 0.00 0.00 0.00 79 1030.0
20260510010252 12 225 4.8 12.9 0.00 0.00 0.00 79 1030.0
20260510005752 12 254 6.4 14.5 0.00 0.00 0.00 81 1029.9
20260510005252 12 74 8.0 17.7 0.00 0.00 0.00 81 1029.9
20260510004752 11 194 6.4 20.9 0.00 0.00 0.00 81 1029.9
20260510004252 11 149 6.4 14.5 0.00 0.00 0.00 80 1030.0
20260510003752 11 115 6.4 16.1 0.00 0.00 0.00 82 1029.9
20260510003252 11 122 6.4 16.1 0.00 0.00 0.00 83 1029.9
20260510002752 11 88 6.4 17.7 0.00 0.00 0.00 83 1030.0
20260510002252 11 213 8.0 22.5 0.00 0.00 0.00 83 1029.8
20260510001752 11 185 8.0 16.1 0.00 0.00 0.00 84 1029.8
20260510001252 10 71 6.4 20.9 0.00 0.00 0.00 85 1029.9
20260510000752 10 105 6.4 19.3 0.00 0.00 0.00 87 1029.8
20260510000252 10 271 6.4 16.1 0.00 0.00 0.00 88 1029.8
20260509235752 10 107 6.4 19.3 0.00 0.00 0.00 88 1029.9
20260509235252 10 217 6.4 17.7 0.00 0.00 0.00 88 1029.9
20260509234752 10 213 6.4 20.9 0.00 0.00 0.00 88 1029.9
20260509234252 10 61 6.4 22.5 0.00 0.00 0.00 88 1029.8
20260509233752 10 264 4.8 19.3 0.00 0.00 0.00 89 1029.9
20260509233252 10 168 6.4 16.1 0.00 0.00 0.00 89 1029.9
20260509232752 9 255 6.4 19.3 0.00 0.00 0.00 89 1029.8